Location: Taunton
(51.0167°N, 3.1000°W)
Time: 09:06:25
(UTC+00:00)

ISS - Visible Passes

Search period start: 21 January 2021 00:00
Search period end: 31 January 2021 00:00
Orbit: 418 x 419 km, 51.6° (Epoch: 21 January)

Date Brightness Start Highest point End Pass type
(mag) Time Alt. Az. Time Alt. Az. Time Alt. Az.
21 Jan -2.6 18:29:00 10° SSW 18:31:56 28° SSE 18:32:21 27° SE visible
21 Jan -0.4 20:05:06 10° WSW 20:05:19 11° WSW 20:05:19 11° WSW visible
22 Jan -1.9 17:41:48 10° SSW 17:44:21 20° SE 17:46:41 11° E visible
22 Jan -2.5 19:17:23 10° WSW 19:19:38 38° SW 19:19:38 38° SW visible
23 Jan -3.4 18:29:44 10° SW 18:33:02 53° SSE 18:33:55 39° ESE visible
23 Jan -0.4 20:06:25 10° W 20:06:52 13° W 20:06:52 13° W visible
24 Jan -2.9 17:42:10 10° SW 17:45:20 39° SSE 17:48:08 12° E visible
24 Jan -2.7 19:18:37 10° W 19:21:05 46° W 19:21:05 46° W visible
25 Jan -3.8 18:30:50 10° WSW 18:34:13 84° SSE 18:35:17 41° E visible
25 Jan -0.5 20:07:41 10° W 20:08:13 14° W 20:08:13 14° W visible
26 Jan -3.6 17:43:05 10° WSW 17:46:26 69° SSE 17:49:27 12° E visible
26 Jan -2.8 19:19:53 10° W 19:22:23 46° WNW 19:22:23 46° WNW visible
27 Jan -3.8 18:32:03 10° W 18:35:26 79° N 18:36:33 39° ENE visible
27 Jan -0.5 20:08:54 10° WNW 20:09:30 14° W 20:09:30 14° W visible
28 Jan -3.8 17:44:13 10° W 17:47:36 85° NNW 17:50:43 12° E visible
28 Jan -2.9 19:21:04 10° W 19:23:40 50° W 19:23:40 50° W visible
29 Jan -3.8 18:33:14 10° W 18:36:38 82° N 18:37:51 37° E visible
29 Jan -0.6 20:10:06 10° W 20:10:48 15° W 20:10:48 15° W visible
30 Jan -3.7 17:45:23 10° W 17:48:46 78° N 17:52:04 11° E visible
30 Jan -2.9 19:22:13 10° W 19:25:01 50° WSW 19:25:01 50° WSW visible
